#timestamp,LO_Frequency,Hit,Temp,Hum 
1487538015.7,286046954.9,N,0.0,0.0
1487538035.5,286046953.3,N,0.0,0.0
1487538055.3,286046953.5,N,0.0,0.0
1487538075.2,286046953.6,N,0.0,0.0
1487538095.0,286046953.3,N,0.0,0.0
1487538095.9,286046953.3,N,0.0,0.0
1487538115.7,286046955.6,N,0.0,0.0
1487538135.6,286046957.4,N,0.0,0.0
1487538155.4,286046957.7,N,0.0,0.0
1487538175.2,286046957.7,N,0.0,0.0
1487538195.1,286046957.7,N,0.0,0.0
1487538196.0,286046957.7,N,0.0,0.0
1487538215.8,286046959.6,N,0.0,0.0
1487538235.6,286046955.8,N,0.0,0.0
1487538255.5,286046954.3,N,0.0,0.0
1487538275.3,286046955.8,N,0.0,0.0
1487538295.1,286046956.2,N,0.0,0.0
1487538315.9,286046956.7,N,0.0,0.0
1487538335.7,286046958.0,N,0.0,0.0
1487538355.5,286046957.1,N,0.0,0.0
1487538375.4,286046957.4,N,0.0,0.0
1487538395.2,286046958.1,N,0.0,0.0
1487538415.0,286046957.3,N,0.0,0.0
1487538415.9,286046957.3,N,0.0,0.0
1487538435.8,286046956.7,N,0.0,0.0
1487538455.6,286046956.5,N,0.0,0.0
1487538475.4,286046955.5,N,0.0,0.0
1487538495.3,286046955.5,N,0.0,0.0
1487538515.1,286046961.1,N,0.0,0.0
1487538516.0,286046961.1,N,0.0,0.0
1487538535.8,286046962.0,N,0.0,0.0
1487538555.7,286046961.1,N,0.0,0.0
1487538575.5,286046958.4,N,0.0,0.0
1487538595.3,286046958.2,N,0.0,0.0
1487538615.1,286046958.2,N,0.0,0.0
1487538635.9,286046955.9,N,0.0,0.0
1487538655.7,286046959.1,N,0.0,0.0
1487538675.5,286046963.9,N,0.0,0.0
1487538695.4,286046957.4,N,0.0,0.0
1487538715.2,286046959.1,N,0.0,0.0
1487538735.0,286046957.0,N,0.0,0.0
1487538735.9,286046957.0,N,0.0,0.0
1487538755.8,286046957.0,N,0.0,0.0
1487538775.6,286046960.8,N,0.0,0.0
1487538795.4,286046959.0,N,0.0,0.0
1487538815.3,286046961.9,N,0.0,0.0
1487538835.1,286046964.1,N,0.0,0.0
1487538855.8,286046963.1,N,0.0,0.0
1487538875.7,286046965.4,N,0.0,0.0
1487538895.5,286046965.1,N,0.0,0.0
1487538915.3,286046964.7,N,0.0,0.0
1487538935.2,286046964.2,N,0.0,0.0
1487538955.9,286046964.2,N,0.0,0.0
1487538975.7,286046966.7,N,0.0,0.0
1487538995.6,286046968.5,N,0.0,0.0
1487539015.4,286046966.5,Y,0.0,0.0
1487539035.2,286047001.1,N,0.0,0.0
1487539055.1,286046998.6,N,0.0,0.0
1487539056.0,286046998.6,N,0.0,0.0
1487539075.8,286047000.0,N,0.0,0.0
1487539095.6,286046998.9,N,0.0,0.0
1487539115.5,286047000.6,N,0.0,0.0
1487539135.3,286046998.5,N,0.0,0.0
1487539155.1,286047000.2,N,0.0,0.0
1487539175.9,286046999.8,N,0.0,0.0
1487539195.7,286047000.3,N,0.0,0.0
1487539215.5,286046997.6,N,0.0,0.0
1487539235.3,286046998.9,N,0.0,0.0
1487539255.2,286046999.9,N,0.0,0.0
1487539275.0,286047002.7,N,0.0,0.0
1487539275.9,286047002.7,N,0.0,0.0
1487539295.7,286047004.0,N,0.0,0.0
1487539315.6,286047002.5,N,0.0,0.0
1487539335.4,286047001.7,N,0.0,0.0
1487539355.2,286047002.0,N,0.0,0.0
1487539375.1,286047003.5,N,0.0,0.0
1487539376.0,286047003.5,N,0.0,0.0
1487539395.8,286047003.8,N,0.0,0.0
1487539415.6,286047003.4,N,0.0,0.0
1487539435.5,286047003.9,N,0.0,0.0
1487539455.3,286047002.7,N,0.0,0.0
1487539475.1,286047004.2,N,0.0,0.0
1487539495.9,286047001.7,N,0.0,0.0
1487539515.7,286047005.4,N,0.0,0.0
1487539535.5,286047007.0,N,0.0,0.0
1487539555.4,286047004.6,N,0.0,0.0
1487539575.2,286047006.8,N,0.0,0.0
1487539595.0,286047010.1,N,0.0,0.0
1487539595.9,286047010.1,N,0.0,0.0
1487539615.8,286047009.7,N,0.0,0.0
1487539635.6,286047009.5,N,0.0,0.0
1487539655.4,286047011.3,N,0.0,0.0
1487539675.3,286047015.6,N,0.0,0.0
1487539695.1,286047009.8,N,0.0,0.0
1487539696.0,286047009.8,N,0.0,0.0
1487539715.8,286047010.4,N,0.0,0.0
1487539735.7,286047010.7,N,0.0,0.0
1487539755.5,286047009.8,N,0.0,0.0
1487539775.3,286047011.3,N,0.0,0.0
1487539795.2,286047013.4,N,0.0,0.0
1487539815.9,286047010.9,N,0.0,0.0
1487539835.7,286047015.1,N,0.0,0.0
1487539855.6,286047011.3,N,0.0,0.0
1487539875.4,286047013.5,N,0.0,0.0
1487539895.2,286047013.6,N,0.0,0.0
1487539915.0,286047013.6,N,0.0,0.0
1487539916.0,286047013.6,N,0.0,0.0
1487539935.8,286047014.8,N,0.0,0.0
1487539955.6,286047013.3,N,0.0,0.0
1487539975.4,286047016.2,N,0.0,0.0
1487539995.3,286047018.0,N,0.0,0.0
1487540015.1,286047021.8,N,0.0,0.0
1487540035.8,286047019.8,N,0.0,0.0
1487540055.7,286047019.0,N,0.0,0.0
1487540075.5,286047019.0,N,0.0,0.0
1487540095.3,286047024.3,N,0.0,0.0
1487540115.2,286047021.0,N,0.0,0.0
1487540135.9,286047021.3,N,0.0,0.0
1487540155.7,286047023.3,N,0.0,0.0
1487540175.6,286047023.1,N,0.0,0.0
1487540195.4,286047025.8,N,0.0,0.0
1487540215.2,286047028.9,N,0.0,0.0
1487540235.0,286047028.0,N,0.0,0.0
1487540235.9,286047028.0,N,0.0,0.0
1487540255.7,286047027.6,N,0.0,0.0
1487540275.6,286047028.4,N,0.0,0.0
1487540295.4,286047028.8,N,0.0,0.0
1487540315.2,286047027.2,N,0.0,0.0
1487540335.1,286047030.8,N,0.0,0.0
1487540336.0,286047030.8,N,0.0,0.0
1487540355.8,286047031.3,N,0.0,0.0
1487540375.6,286047030.8,N,0.0,0.0
1487540395.5,286047031.3,N,0.0,0.0
1487540415.3,286047031.5,N,0.0,0.0
1487540435.1,286047031.6,N,0.0,0.0
1487540455.9,286047034.3,N,0.0,0.0
1487540475.7,286047036.4,N,0.0,0.0
1487540495.5,286047030.1,N,0.0,0.0
1487540515.4,286047030.5,N,0.0,0.0
1487540535.2,286047031.8,N,0.0,0.0
1487540555.0,286047036.3,N,0.0,0.0
1487540555.9,286047036.3,N,0.0,0.0
1487540575.8,286047034.8,N,0.0,0.0
1487540595.6,286047034.7,N,0.0,0.0
1487540615.4,286047033.9,N,0.0,0.0
1487540635.3,286047037.2,N,0.0,0.0
1487540655.1,286047037.8,N,0.0,0.0
1487540656.0,286047037.8,N,0.0,0.0
1487540675.8,286047037.2,N,0.0,0.0
1487540695.7,286047033.4,N,0.0,0.0
1487540715.5,286047035.5,N,0.0,0.0
1487540735.3,286047035.5,N,0.0,0.0
1487540755.2,286047035.0,N,0.0,0.0
1487540775.9,286047035.7,N,0.0,0.0
1487540795.7,286047034.9,N,0.0,0.0
1487540815.5,286047035.7,N,0.0,0.0
1487540835.4,286047035.7,N,0.0,0.0
1487540855.2,286047036.2,N,0.0,0.0
1487540875.0,286047035.4,N,0.0,0.0
1487540875.9,286047035.4,N,0.0,0.0
1487540895.8,286047033.8,N,0.0,0.0
1487540915.6,286047036.8,N,0.0,0.0
1487540935.4,286047036.4,N,0.0,0.0
1487540955.3,286047034.3,N,0.0,0.0
1487540975.4,286047038.0,N,0.0,0.0
1487540995.2,286047038.9,N,0.0,0.0
1487541015.4,286047039.2,N,0.0,0.0
1487541035.2,286047037.1,N,0.0,0.0
1487541055.0,286047041.2,N,0.0,0.0
1487541055.9,286047041.2,N,0.0,0.0
1487541075.8,286047041.6,N,0.0,0.0
1487541095.6,286047040.1,N,0.0,0.0
1487541115.4,286047040.1,N,0.0,0.0
1487541135.3,286047041.6,N,0.0,0.0
1487541155.1,286047042.1,N,0.0,0.0
1487541175.8,286047042.2,N,0.0,0.0
1487541195.7,286047042.2,N,0.0,0.0
1487541215.5,286047041.9,N,0.0,0.0
1487541235.3,286047044.4,N,0.0,0.0
1487541255.2,286047043.4,N,0.0,0.0
1487541275.9,286047045.5,N,0.0,0.0
1487541295.7,286047047.4,Y,0.0,0.0
1487541315.6,286047020.9,N,0.0,0.0
1487541335.4,286047022.3,N,0.0,0.0
1487541355.2,286047022.2,N,0.0,0.0
1487541375.1,286047022.7,N,0.0,0.0
1487541376.0,286047022.7,N,0.0,0.0
1487541395.8,286047022.8,N,0.0,0.0
1487541415.6,286047023.1,N,0.0,0.0
1487541435.5,286047025.2,N,0.0,0.0
1487541455.7,286047022.5,N,0.0,0.0
1487541475.6,286047022.1,N,0.0,0.0
1487541495.4,286047026.8,N,0.0,0.0
1487541515.2,286047029.2,N,0.0,0.0
1487541535.0,286047025.4,N,0.0,0.0
1487541535.9,286047025.4,N,0.0,0.0
1487541555.8,286047028.0,N,0.0,0.0
1487541575.6,286047026.0,N,0.0,0.0
1487541595.4,286047027.8,N,0.0,0.0
